Wind_Speed
41 42 41 40 39 39 39 39 40 40 40 41 42 44 45 47 48 50 50 51 51 51 52 51 49 45 41 37 35 33 32 32 32 33 34 36 37 38 39 40 40 41 42 43 44 44 46 47 48 49 49 50 50 51 51 51 51 51 52 52 52 52 52 52 54 56 57 56 56 57 57 57 58 58 60 62 62 61 61 59 58 58 59 61 63 66 69
42 42 41 41 41 40 40 41 40 41 41 43 44 46 47 49 50 50 51 51 51 52 51 48 44 40 37 35 33 32 32 33 34 35 36 38 39 39 40 41 42 43 44 44 45 46 47 48 49 49 50 50 51 51 51 51 51 51 51 52 53 54 54 54 54 56 58 57 57 57 57 58 58 58 59 59 59 58 57 57 58 59 61 64 66 68 73
43 43 43 43 42 42 41 41 41 42 43 45 46 48 49 50 50 50 50 51 51 50 47 43 39 36 34 33 32 33 34 35 36 37 38 39 40 41 41 42 44 45 45 46 47 47 47 48 49 49 50 50 50 51 51 51 51 52 52 53 55 56 56 56 55 55 56 56 55 55 54 55 55 54 54 54 55 56 56 57 59 61 64 68 70 71 74
44 43 43 43 43 42 42 42 42 44 46 47 48 49 50 50 50 51 51 51 49 45 41 37 35 33 33 33 34 35 36 37 38 38 39 41 41 42 43 44 45 46 47 47 48 48 49 49 49 49 50 50 50 51 52 52 52 53 54 54 56 56 56 56 55 54 53 52 52 51 50 50 51 51 52 53 54 56 58 60 63 65 68 72 75 76 77
44 43 43 43 42 42 42 43 45 46 47 48 49 50 50 50 51 51 50 47 43 39 35 34 33 33 34 35 36 37 37 38 39 40 41 42 43 44 44 45 46 47 48 48 49 49 50 50 50 50 50 51 51 52 52 53 53 54 54 55 55 55 54 53 52 52 50 49 49 48 48 49 51 52 54 55 58 60 63 65 67 70 73 76 79 82 83
43 43 42 42 42 43 44 45 46 47 48 49 49 50 50 51 50 48 45 40 36 34 33 33 33 34 35 36 37 38 39 40 41 41 42 43 44 45 46 47 47 48 49 49 49 50 50 51 51 51 51 51 52 52 52 53 53 53 53 53 52 51 50 49 50 50 48 47 47 48 50 52 54 56 58 60 62 65 68 70 73 76 78 80 83 86 88
42 42 41 42 43 44 45 46 47 47 48 48 49 50 50 49 46 42 37 34 33 33 33 34 35 36 37 37 38 39 40 41 42 43 44 45 46 47 47 48 48 49 49 49 49 50 50 50 50 50 50 50 51 51 51 51 51 51 50 50 49 48 47 46 47 49 49 48 49 51 53 57 59 62 63 65 68 70 72 75 78 81 84 86 88 91 93
41 41 41 42 44 45 46 46 47 47 48 49 49 49 47 43 38 35 33 33 33 34 35 36 37 38 38 39 40 41 42 43 44 45 46 46 47 47 48 48 49 49 49 49 49 48 48 48 48 48 48 48 48 49 49 49 49 48 48 47 47 46 46 46 47 49 50 51 52 54 57 60 64 66 68 70 72 75 77 79 82 85 88 91 93 95 98
40 41 42 43 44 45 46 46 46 47 47 47 46 42 39 35 33 33 33 34 35 36 37 38 38 39 40 41 42 43 44 45 45 46 46 47 47 48 48 48 48 48 47 47 46 46 46 46 46 46 46 46 46 46 46 46 46 46 45 45 45 46 46 47 48 51 53 54 55 58 60 64 67 70 72 74 77 79 82 84 86 89 92 94 96 97 99
40 41 42 44 44 44 44 45 46 45 44 41 38 35 33 33 33 34 35 36 37 37 38 39 40 41 42 43 44 44 45 45 46 46 46 47 47 47 47 47 46 46 45 45 45 44 44 44 44 44 44 44 44 44 44 44 44 44 44 44 45 47 48 49 51 54 57 59 60 62 64 68 71 74 76 78 81 83 85 87 89 92 95 96 98 100 102
40 42 43 43 43 43 43 44 43 41 38 35 34 33 33 34 35 36 36 37 38 39 40 40 41 42 43 44 44 45 45 45 46 46 46 46 45 45 45 44 44 44 44 44 43 43 43 42 42 42 42 42 42 42 43 43 43 44 44 45 47 49 50 52 54 57 60 63 65 67 69 72 75 77 79 81 84 86 87 89 92 95 98 100 102 105 107
40 41 42 42 41 42 42 40 38 36 34 33 33 34 34 35 36 37 38 39 39 40 41 42 42 43 44 44 44 44 44 44 44 44 44 44 43 43 43 43 42 42 42 42 41 41 41 41 41 41 40 40 41 42 43 44 44 45 46 47 49 51 53 55 57 60 62 65 67 70 72 75 78 79 81 84 87 89 90 92 96 99 103 105 108 111 113
40 40 40 40 40 40 38 36 34 33 33 33 34 35 36 36 37 38 39 40 41 42 42 42 43 43 43 43 43 43 43 42 42 42 42 41 41 41 41 41 41 40 40 40 40 40 39 40 40 40 41 41 41 43 44 46 47 48 49 50 52 54 56 58 59 61 64 67 69 71 74 77 80 82 85 89 92 94 95 97 100 105 107 109 112 114 117
38 38 38 39 39 37 35 34 33 33 33 34 35 36 36 37 38 39 40 41 41 42 42 42 42 42 42 42 41 41 41 40 40 40 40 40 40 40 39 39 39 39 39 39 39 38 38 39 39 41 42 42 43 44 46 48 49 50 51 52 54 56 59 60 62 64 67 70 73 75 78 81 83 86 89 93 96 99 100 101 104 107 110 112 114 116 117
36 37 38 37 35 34 33 33 33 33 34 35 35 36 37 38 39 40 41 41 41 41 42 41 41 41 40 40 39 39 39 39 39 38 38 38 38 38 38 38 37 38 38 38 38 38 38 39 39 40 42 43 43 45 47 49 50 52 54 56 57 60 62 64 67 69 71 74 77 80 82 85 88 91 94 98 101 104 106 107 109 112 113 114 115 115 115
37 37 35 34 33 32 32 32 33 34 35 35 36 37 38 39 40 40 40 41 41 40 40 40 39 38 38 38 38 37 37 37 37 37 37 37 37 37 37 37 37 37 37 37 38 38 39 39 40 41 43 44 45 47 49 51 53 55 58 60 62 64 67 69 72 74 76 79 82 85 88 90 93 96 100 104 107 109 111 112 114 115 115 115 114 114 113
35 34 32 32 32 32 32 32 33 34 35 37 37 38 39 39 40 40 40 40 40 39 38 38 37 37 36 36 36 36 36 36 36 36 36 36 35 35 36 36 36 37 37 37 38 38 39 41 42 44 46 47 49 51 53 54 57 59 62 64 67 69 72 75 77 80 82 85 88 91 94 97 99 101 105 108 111 113 114 114 114 113 113 112 111 111 110
32 31 31 31 31 31 32 33 34 35 36 37 38 38 39 39 39 38 38 38 37 37 37 36 35 35 34 34 34 34 34 34 34 34 35 35 35 35 35 35 36 37 37 38 39 40 42 43 45 47 49 51 53 55 57 59 60 63 65 68 71 73 76 79 82 85 88 91 94 97 100 102 105 106 109 111 113 113 113 113 111 109 108 108 107 106 105
29 30 30 30 30 31 33 34 35 36 37 37 37 38 38 37 37 37 36 36 35 35 34 34 33 33 33 33 33 33 33 33 33 33 34 34 34 35 35 36 37 38 39 41 42 44 45 47 49 50 52 54 56 58 61 63 65 67 70 72 75 78 81 84 87 91 93 96 99 102 104 106 108 109 110 111 111 110 108 108 107 106 104 103 102 101 100
28 29 29 30 31 32 33 34 35 36 36 36 36 36 36 35 35 34 34 33 33 33 32 32 32 32 32 32 32 32 33 33 33 33 33 34 35 35 36 38 39 41 42 44 45 47 48 50 51 53 55 57 59 62 64 67 70 72 75 78 81 84 87 90 92 95 98 101 103 105 107 108 108 108 108 107 106 104 103 103 102 102 100 99 99 99 99
28 28 29 30 32 33 33 34 34 34 34 34 33 33 33 32 32 31 31 31 31 31 31 31 31 32 32 32 32 32 33 33 33 33 34 35 36 37 39 40 42 43 45 46 48 49 51 52 54 56 58 60 63 65 68 72 75 78 81 84 86 89 92 95 98 100 102 104 106 108 109 108 106 104 103 102 101 100 99 99 98 98 98 98 99 100 101
27 29 30 31 32 32 32 32 32 32 31 31 30 30 30 30 30 30 30 30 30 30 31 31 31 32 32 32 32 33 33 33 34 35 36 37 39 40 41 43 44 45 47 48 50 51 53 55 57 59 62 65 68 70 73 76 80 83 86 89 91 94 97 100 102 105 106 107 108 108 107 105 103 101 100 99 99 99 98 98 98 98 98 99 101 102 103
28 29 30 30 30 30 30 30 30 29 29 28 28 28 28 28 28 29 29 29 29 30 30 30 31 31 32 32 33 33 34 35 36 38 39 41 42 43 45 46 47 48 50 51 53 54 56 59 61 64 67 70 73 76 79 82 84 87 90 93 96 99 101 103 106 107 107 107 106 104 103 102 101 100 99 99 99 99 99 99 99 100 100 101 101 102 102
27 28 28 29 29 28 28 28 27 27 27 27 27 27 27 27 28 28 29 29 29 30 31 31 31 32 33 34 34 36 37 38 39 41 42 44 45 46 48 49 50 51 53 55 56 59 61 63 66 69 72 74 77 80 83 86 89 92 94 97 100 102 104 105 106 106 105 103 101 100 100 99 99 98 98 98 98 99 99 99 99 100 100 100 101 101 101
26 26 26 26 25 25 25 25 25 25 25 25 25 26 27 27 28 29 29 30 30 31 32 32 33 34 35 36 37 38 39 41 42 43 45 46 47 48 50 52 53 55 56 58 60 63 65 68 71 74 76 79 81 84 87 90 93 96 98 101 103 104 104 103 103 101 100 98 97 97 97 97 97 96 96 96 96 97 98 98 98 99 99 100 100 101 100
23 23 23 23 23 23 24 24 25 25 26 26 27 27 28 29 29 30 31 32 32 33 33 34 35 36 37 38 39 40 41 42 44 45 46 48 50 51 53 55 56 58 60 62 64 67 70 72 75 77 80 83 85 88 91 94 97 99 101 102 103 102 100 98 97 96 96 95 94 93 93 93 94 94 94 94 95 96 97 97 98 98 99 99 99 99 99
22 22 22 23 23 24 24 25 26 26 27 27 28 28 29 29 30 31 32 32 33 34 34 35 36 37 37 38 40 41 42 44 45 47 48 50 52 53 55 57 59 61 63 65 68 70 72 75 78 80 83 86 89 92 95 97 99 100 100 100 99 97 95 94 93 92 92 91 90 89 89 89 90 91 92 93 94 95 96 97 97 98 98 97 97 96 96
21 21 22 23 24 25 26 26 27 28 29 29 30 30 31 31 32 32 33 33 34 35 35 36 37 38 39 40 41 42 44 45 47 48 50 51 53 55 57 60 62 64 66 68 71 73 75 78 81 84 87 90 93 95 96 97 97 97 96 95 93 92 91 90 89 88 88 88 88 87 88 88 89 90 91 92 93 95 96 96 96 96 96 96 95 94 94
21 23 24 25 27 28 29 29 30 31 31 32 33 33 34 35 35 35 36 37 37 38 38 39 40 40 41 42 43 44 45 46 48 49 51 53 56 58 60 62 64 67 69 71 74 76 79 82 85 88 90 92 93 94 94 93 92 91 90 89 89 88 87 86 85 85 85 86 87 87 87 88 89 90 91 92 93 95 95 96 96 95 94 94 93 93 91
24 25 26 27 27 28 28 29 29 30 31 32 32 33 33 34 35 36 36 37 38 38 39 39 40 40 41 42 43 44 46 48 50 52 55 57 59 61 63 65 67 69 72 75 77 80 83 85 87 89 90 91 90 89 88 87 86 86 86 85 85 84 84 83 83 83 84 85 86 87 88 88 90 91 93 94 94 95 95 95 94 93 92 92 91 91 89
24 24 25 26 27 27 28 30 31 32 33 33 34 35 35 36 37 37 37 38 39 39 40 40 41 42 43 44 46 47 49 51 54 56 57 59 61 63 65 67 70 73 76 78 81 84 85 86 87 87 87 86 85 84 83 83 83 82 82 82 82 82 82 83 83 83 84 84 86 87 89 90 92 93 94 94 94 94 93 92 91 91 90 90 90 89 88
24 26 28 29 30 31 33 34 35 36 37 38 38 39 40 40 41 41 42 42 42 43 43 44 44 45 46 47 49 50 52 53 55 57 59 60 63 65 68 71 74 77 79 81 83 85 85 85 84 82 82 81 80 80 80 80 80 80 79 79 80 80 81 82 82 83 84 84 86 87 89 91 92 93 92 92 91 91 90 89 89 89 89 88 89 88 88
28 30 32 33 34 35 36 37 37 38 39 40 40 41 41 42 42 43 43 43 44 44 44 45 46 46 47 48 49 51 52 54 56 58 60 63 66 69 72 75 78 80 81 82 83 83 82 80 79 78 77 77 77 77 78 77 77 78 78 78 78 79 80 81 82 83 84 86 87 88 89 90 90 90 90 89 89 88 88 87 87 87 87 87 87 87 87
31 32 32 33 34 35 35 36 37 37 38 39 39 40 40 40 41 41 42 42 43 43 44 44 45 45 46 47 49 50 53 55 58 61 64 68 71 74 76 78 80 81 81 81 80 78 77 76 75 74 74 74 75 75 75 75 76 76 76 77 78 78 80 82 84 85 86 87 88 88 88 88 88 88 88 87 87 87 87 86 85 85 85 86 86 86 85
30 30 31 32 33 33 34 35 36 37 37 38 39 39 39 40 40 40 41 41 42 42 43 43 44 45 46 48 50 52 55 58 61 65 69 72 75 77 78 79 80 79 78 76 75 74 73 73 72 72 72 72 73 73 73 74 74 75 76 77 78 79 80 82 84 85 86 86 86 86 86 86 86 86 86 86 86 86 86 85 85 84 84 84 84 84 84
28 29 30 31 32 33 34 35 37 37 38 39 39 39 40 41 41 41 41 41 42 42 42 43 44 45 47 50 52 56 59 63 66 70 73 75 77 78 78 78 77 75 74 73 72 71 71 70 70 71 71 71 71 72 73 74 75 76 78 79 80 81 81 82 83 83 84 84 84 84 84 84 84 84 84 84 84 84 84 84 83 83 82 82 82 83 83
28 29 30 32 33 34 36 37 38 38 39 40 41 41 42 42 43 43 43 43 43 43 44 45 46 48 51 54 57 60 64 68 71 74 76 77 78 77 76 75 73 72 71 71 70 70 70 69 69 70 70 71 73 74 75 76 77 78 79 80 81 81 81 81 81 82 82 82 83 83 82 82 83 83 83 84 84 84 84 84 83 82 82 82 82 83 83
29 30 32 33 35 36 37 39 40 40 41 42 43 44 45 45 45 45 45 46 46 47 47 48 50 53 56 59 62 66 69 72 75 77 78 78 77 75 74 73 72 71 70 70 69 69 69 70 71 72 73 75 76 77 78 78 78 79 79 79 79 79 79 80 80 80 80 81 81 80 80 80 81 82 83 83 83 84 84 84 83 83 82 83 83 84 85
30 32 33 35 37 38 39 41 42 43 44 45 45 46 47 47 47 47 48 48 49 50 51 52 55 57 60 63 67 70 74 76 78 79 78 77 76 74 73 72 71 71 70 70 70 71 71 72 74 75 76 77 78 78 78 77 77 77 77 77 77 78 78 79 79 80 80 80 80 79 79 79 79 80 81 82 83 83 84 83 83 83 83 83 83 84 85
32 33 35 37 39 40 42 43 44 45 46 47 48 48 49 49 49 50 50 50 51 52 53 55 58 61 64 67 71 75 78 79 80 80 79 78 76 75 74 73 73 73 72 72 73 74 74 75 76 76 77 77 77 76 76 75 75 75 76 76 77 78 79 79 80 80 81 81 80 80 80 80 80 80 81 82 82 82 82 82 82 82 82 82 83 84 85
33 35 37 39 41 42 43 45 46 47 48 49 50 50 51 51 52 52 52 53 53 55 57 59 62 65 68 72 75 79 81 82 82 82 81 80 79 78 77 77 76 76 75 75 75 76 76 76 75 75 75 75 75 75 75 75 76 76 77 77 78 79 80 80 81 81 81 81 80 81 81 81 81 81 82 82 82 81 81 81 81 81 81 82 84 85 85
35 37 39 41 43 44 45 46 48 49 50 51 51 52 52 53 54 54 55 55 56 58 60 63 66 69 73 76 80 82 84 85 85 85 84 83 82 81 80 80 79 78 78 77 76 75 75 75 75 75 76 76 77 77 78 78 78 78 79 79 80 81 81 81 81 81 80 80 80 81 81 81 81 81 81 82 82 81 81 81 81 81 82 83 84 85 84
37 39 41 43 44 46 47 48 49 51 52 53 54 54 55 56 57 58 59 60 61 63 65 67 70 73 77 80 83 85 87 88 88 88 88 86 85 83 82 81 80 79 78 77 76 75 76 76 77 78 79 79 80 80 80 80 80 80 81 81 82 82 82 82 81 81 80 80 80 81 81 82 82 82 81 82 82 81 81 81 80 80 82 83 84 84 83
38 40 42 44 45 47 48 50 51 52 54 55 56 57 58 60 61 62 63 64 65 67 69 71 74 77 80 83 86 88 90 91 92 92 90 88 86 84 83 82 80 79 78 78 78 79 79 80 80 81 81 81 81 81 81 81 82 82 83 83 83 83 82 82 81 81 81 81 81 82 82 83 83 82 82 81 81 81 80 80 80 81 82 83 84 84 83
40 42 44 46 47 48 49 51 53 54 55 57 58 59 61 63 64 65 66 68 69 70 72 74 77 80 83 86 89 91 93 94 95 94 92 89 87 86 84 83 82 81 81 81 82 82 82 82 82 82 82 82 82 82 82 83 83 84 84 84 84 83 83 82 82 82 81 81 82 83 83 84 84 83 83 82 82 81 80 79 80 81 82 84 85 84 83
41 43 45 47 49 50 51 53 55 56 58 59 61 62 64 66 67 69 70 70 71 73 75 77 79 82 85 88 91 93 95 97 97 95 93 91 89 87 86 85 85 84 84 84 83 83 83 84 84 85 85 85 85 85 85 85 85 85 85 85 85 84 84 83 83 82 82 82 83 84 84 85 85 85 84 83 83 82 81 81 81 82 83 84 85 84 82
43 45 47 49 50 51 53 55 56 58 60 62 63 65 66 68 70 71 72 73 74 75 77 79 81 84 86 89 92 95 97 98 98 97 95 93 91 90 89 88 87 86 86 85 86 86 86 87 88 88 88 88 88 87 87 87 87 87 87 87 86 85 85 84 84 83 83 83 84 85 86 86 86 86 86 85 84 84 83 83 83 84 85 85 85 83 81
45 47 49 50 51 53 54 56 58 60 62 64 65 67 68 70 72 73 74 75 76 78 79 81 83 85 88 91 94 97 99 100 100 99 97 95 93 92 91 90 89 88 88 88 89 89 90 90 90 90 90 90 89 89 89 89 89 89 89 88 88 87 86 86 85 85 85 85 86 86 87 87 87 87 87 86 85 85 85 85 86 86 87 86 85 83 81
47 49 50 52 53 55 56 58 60 62 64 65 67 68 70 72 73 75 76 77 78 79 81 82 84 86 89 92 95 98 100 101 102 101 100 98 96 94 93 92 91 91 91 91 91 91 92 92 92 92 92 91 91 91 91 91 91 90 90 90 89 88 88 87 87 87 87 87 87 87 87 88 88 88 88 87 86 85 86 87 88 88 88 87 85 83 82
49 51 52 54 55 56 58 59 61 63 65 66 68 70 71 73 75 76 78 79 80 81 82 84 85 87 90 93 96 98 101 103 104 103 101 99 98 96 95 94 93 93 93 93 93 93 93 94 94 94 94 93 93 92 92 92 92 92 91 91 90 90 89 89 88 88 88 89 89 88 88 88 88 88 88 87 87 86 86 87 89 89 89 88 86 84 82
50 52 54 55 56 57 59 61 62 64 66 68 69 71 73 74 76 77 79 80 81 82 83 84 86 88 90 93 96 99 102 104 105 104 103 101 99 98 97 96 95 95 94 94 94 94 95 95 96 96 95 95 95 94 94 94 93 93 92 92 91 91 90 90 89 89 89 89 89 89 89 89 89 88 88 87 87 87 87 88 89 91 91 89 87 85 83
52 53 55 56 57 58 60 62 64 65 67 69 70 72 73 75 77 78 80 81 82 83 85 86 87 88 91 94 97 100 103 105 106 105 104 102 101 99 98 98 97 96 96 96 95 96 96 96 97 97 97 97 96 96 96 95 95 95 94 93 93 92 91 91 90 90 90 89 89 89 89 89 89 89 89 88 87 88 89 90 91 92 92 91 88 85 82
Wind_Direction
270 274 280 286 292 296 300 304 306 308 309 310 310 309 308 308 308 308 309 309 310 310 311 311 311 311 311 310 310 310 311 310 310 309 308 308 308 308 307 307 307 307 306 305 305 304 303 303 302 302 301 301 301 300 299 299 299 299 298 298 298 298 298 298 298 297 296 296 295 295 295 294 294 294 294 294 294 294 294 294 294 294 293 293 293 293 292
272 278 284 290 295 299 303 306 309 310 310 310 309 308 308 308 308 309 309 310 310 311 311 311 311 310 311 311 312 312 311 310 309 309 309 309 309 308 308 308 307 306 305 305 304 304 303 303 303 302 302 302 301 301 301 300 300 300 300 300 300 300 300 300 299 298 298 297 297 296 296 296 296 295 294 294 295 295 295 295 295 294 293 292 292 292 292
276 281 286 291 296 301 305 308 310 310 310 309 308 307 307 308 308 309 310 310 311 311 311 311 311 311 312 312 312 312 311 310 310 310 310 309 309 308 308 308 307 306 305 305 304 304 303 303 303 302 302 302 302 302 302 302 302 302 302 302 302 302 302 302 300 299 298 298 297 297 297 297 296 295 294 294 294 294 294 293 293 292 292 291 291 291 292
277 282 286 291 297 302 306 309 310 309 308 307 307 307 307 308 309 309 310 310 311 311 311 311 312 313 313 313 312 311 311 311 311 310 310 309 308 308 308 307 306 306 305 305 304 304 303 303 303 302 303 303 303 302 303 303 303 303 303 304 304 304 304 303 302 301 300 299 299 298 297 296 295 294 293 293 292 293 293 293 293 292 292 293 292 292 292
278 283 288 294 299 303 306 308 307 306 306 306 306 307 308 309 309 310 310 311 311 311 312 313 314 313 313 312 312 312 311 311 310 310 309 309 308 308 307 307 306 305 305 305 305 305 304 304 304 304 304 304 304 304 304 304 304 304 304 304 305 305 305 305 303 302 302 302 301 300 299 297 296 295 294 294 294 294 294 294 294 294 293 294 294 294 294
281 286 292 297 302 304 306 305 305 305 305 306 307 308 308 309 310 310 310 311 312 313 313 313 313 312 312 312 312 312 311 310 310 309 309 309 308 308 307 307 306 306 306 306 306 306 306 306 306 306 306 305 305 305 305 305 305 305 306 306 306 306 306 306 305 304 304 304 302 301 300 299 298 297 296 296 296 296 296 296 296 296 296 296 296 296 296
285 290 296 300 303 304 304 303 304 305 306 307 308 308 309 309 310 311 312 313 314 313 313 312 312 313 313 312 312 311 311 310 310 310 310 309 309 309 308 308 307 307 307 307 308 308 308 308 308 307 307 307 307 306 306 307 307 308 308 308 308 307 307 307 306 305 305 305 304 303 302 301 300 299 299 299 299 299 299 299 299 299 298 298 298 297 298
288 294 298 301 302 302 302 303 305 306 307 308 308 308 309 310 311 313 313 314 313 313 313 313 313 313 313 312 312 311 311 311 311 311 310 310 310 309 309 308 308 309 309 310 310 310 310 310 309 309 309 309 309 309 309 310 310 310 310 310 309 308 307 307 305 305 304 304 304 303 302 302 301 301 301 301 301 300 300 300 299 299 299 299 299 299 299
292 296 299 300 301 302 303 304 306 307 308 308 309 310 311 312 313 314 313 313 313 313 313 313 313 313 312 312 312 312 312 312 312 311 311 310 310 310 310 310 310 311 311 312 312 312 312 312 312 312 312 312 312 312 311 311 312 312 312 311 309 308 307 306 305 303 303 303 302 302 302 302 301 301 301 301 301 300 300 299 299 299 299 299 299 299 299
295 297 299 300 301 302 304 305 307 308 309 310 311 312 313 313 313 313 313 313 313 313 312 313 312 312 312 312 312 313 313 313 312 311 311 311 311 311 312 312 313 313 314 314 314 314 314 315 314 314 314 314 314 314 314 314 314 314 313 312 310 308 307 306 305 304 304 304 304 303 302 302 301 301 301 301 301 300 300 301 301 300 299 299 299 299 299
295 297 298 299 301 303 305 307 309 309 310 311 311 312 313 313 313 313 312 312 312 312 312 312 313 312 313 313 313 313 313 312 312 312 312 312 313 313 314 315 316 316 316 316 316 317 317 317 317 317 317 317 317 317 317 317 317 316 315 313 311 309 308 308 307 306 306 306 305 305 304 303 302 302 302 302 302 301 301 301 301 300 300 300 300 299 299
295 296 298 300 302 305 307 308 309 309 310 311 312 312 312 312 312 312 312 312 312 313 313 313 313 313 313 313 313 313 313 312 312 313 313 314 315 316 317 317 318 318 318 318 319 319 320 320 320 320 321 321 321 320 319 319 318 317 316 314 313 312 310 309 308 307 307 306 306 305 305 304 304 304 304 303 302 301 302 302 301 301 300 301 301 300 300
295 296 299 302 305 306 307 307 307 308 310 311 312 312 312 312 313 313 313 313 313 312 313 313 313 313 313 313 313 313 313 313 314 315 316 317 318 318 319 319 319 320 320 321 322 323 323 324 323 323 323 323 323 322 321 319 319 318 316 315 314 312 311 310 309 308 308 307 306 306 305 304 304 304 304 303 302 302 302 302 302 301 301 301 301 301 301
296 299 302 304 305 305 305 305 307 309 310 311 312 312 312 313 313 312 312 312 312 313 313 314 314 314 314 314 314 314 315 316 317 318 319 320 320 320 321 321 322 322 323 324 325 325 325 325 325 324 324 324 324 322 321 319 318 317 316 315 314 313 311 311 310 309 308 307 306 306 305 304 304 304 303 303 302 302 302 302 301 301 301 302 302 302 302
299 301 303 303 302 303 304 306 308 310 311 311 312 312 312 312 312 312 312 312 313 313 314 314 314 314 314 315 316 317 318 319 320 321 321 321 321 322 323 323 324 325 325 326 326 326 326 326 326 325 324 323 323 321 320 319 318 317 316 315 314 313 311 311 310 309 308 307 306 306 305 305 305 304 304 303 303 303 304 304 304 304 304 304 304 304 305
301 301 301 301 301 303 305 308 309 310 311 312 312 312 312 312 312 312 312 313 314 314 314 315 315 316 317 318 319 320 321 321 322 322 322 323 323 324 325 325 326 326 327 327 326 326 326 325 325 324 323 322 321 320 319 318 317 317 316 315 314 313 312 311 310 309 308 308 307 306 306 305 305 306 306 306 306 306 306 307 307 307 307 307 307 307 307
299 299 300 301 303 305 307 309 310 311 311 312 312 312 312 312 312 313 313 314 314 315 316 316 318 319 320 321 322 322 323 323 323 323 324 324 325 326 327 327 327 327 327 327 326 326 325 324 324 323 322 321 320 320 319 318 317 316 315 314 314 313 311 311 310 309 309 308 308 308 308 308 308 308 308 308 308 308 308 308 308 308 308 308 308 308 308
299 299 301 303 305 307 309 310 311 311 312 311 311 311 312 312 313 314 315 315 316 317 318 319 320 321 322 322 323 323 323 324 324 325 326 326 327 328 328 328 328 327 326 326 325 324 324 324 324 323 322 321 321 320 318 318 317 316 314 313 312 311 311 310 310 310 310 310 310 310 310 310 310 310 309 309 309 309 309 309 309 309 309 309 309 309 309
300 301 302 305 307 309 311 311 311 311 311 311 312 312 313 314 315 316 316 317 318 319 320 321 322 322 323 324 324 325 325 326 326 327 328 328 329 329 328 328 327 326 325 325 325 325 325 324 324 323 322 321 320 318 317 316 315 314 313 312 311 311 311 311 311 311 311 311 311 310 310 310 310 310 310 309 309 309 309 309 309 309 309 309 310 310 311
301 303 305 308 310 311 311 311 311 311 312 312 314 315 316 316 317 318 319 320 321 321 322 323 324 324 325 326 327 327 327 328 329 329 329 329 328 328 327 327 326 326 326 326 326 325 324 324 322 321 320 319 318 317 315 314 314 313 313 313 313 313 313 313 312 312 312 311 311 310 310 310 310 310 310 309 309 309 309 309 309 310 311 311 312 313 314
304 307 309 311 311 311 311 311 312 313 314 315 316 317 318 319 320 322 323 323 324 324 325 326 327 327 328 328 329 329 329 330 330 329 329 328 327 327 327 326 326 326 326 325 324 323 323 322 321 319 318 317 316 315 314 314 314 314 314 314 314 314 313 313 312 312 312 312 311 311 311 311 311 310 310 310 310 310 310 311 312 313 314 315 316 316 317
309 311 312 312 311 312 312 313 314 315 316 318 319 320 322 323 324 325 326 327 327 328 328 329 330 330 330 331 331 331 330 330 329 328 328 327 326 326 326 326 325 325 324 323 323 322 321 320 319 318 317 316 315 315 315 315 315 315 314 314 314 314 313 313 313 312 312 312 312 312 311 312 312 312 312 312 312 313 314 315 316 317 317 318 318 318 317
312 312 313 313 313 315 316 317 318 320 321 322 324 325 326 327 328 328 329 329 330 330 331 331 331 332 332 332 331 331 330 329 329 328 327 327 327 326 326 326 325 324 324 323 322 321 320 319 318 317 316 316 316 316 316 315 315 314 314 314 314 314 313 313 313 312 312 313 312 313 313 313 314 314 314 315 315 316 317 318 318 319 319 319 318 317 316
314 315 316 318 319 321 322 323 325 326 327 328 329 330 330 331 331 331 331 332 333 333 332 332 333 332 332 332 331 330 330 329 329 328 328 328 327 327 326 325 325 324 324 323 322 321 320 318 318 317 317 317 316 316 315 315 314 314 314 313 313 313 313 313 313 313 313 313 314 314 314 314 315 316 316 317 318 318 318 319 319 319 318 318 317 316 316
319 320 322 323 325 327 328 329 331 332 332 333 334 334 334 335 335 335 335 335 335 335 334 334 334 333 332 332 331 331 330 330 329 329 329 328 327 327 326 326 325 324 323 322 321 320 319 318 318 318 317 317 316 315 315 314 314 314 313 313 313 313 313 313 313 313 314 314 315 315 316 316 317 317 318 318 318 318 318 318 318 318 318 318 317 317 316
325 327 329 331 333 335 336 337 338 339 339 339 339 339 339 338 338 338 337 337 336 336 336 335 335 334 333 332 332 331 331 331 330 330 329 329 328 327 327 326 324 323 322 321 320 320 319 319 318 317 317 316 315 315 314 314 314 313 313 313 313 313 313 314 314 314 315 316 316 317 317 317 317 317 318 318 318 318 318 318 319 319 319 318 318 317 317
335 338 340 342 343 344 344 344 344 344 343 343 342 342 341 340 340 339 338 338 338 337 337 336 335 334 333 333 332 332 332 332 331 330 330 329 328 327 325 324 323 322 321 321 320 320 319 318 318 317 316 315 315 314 314 313 313 313 313 313 313 314 315 315 316 316 317 317 317 317 317 317 317 317 318 318 318 318 319 319 320 319 319 318 318 318 318
344 347 348 350 350 350 350 349 349 348 347 347 346 345 344 343 342 341 340 339 339 338 337 336 336 335 335 334 334 333 333 332 331 330 329 328 327 326 325 324 323 323 322 321 320 320 319 318 317 316 315 314 314 313 313 313 313 313 314 314 315 316 316 317 317 317 317 317 317 318 318 318 318 318 319 319 320 320 320 320 320 320 320 320 319 320 320
354 356 357 357 356 356 355 354 353 352 351 350 349 348 347 345 344 344 343 342 341 340 339 338 337 336 336 335 334 333 332 331 330 329 329 328 327 327 326 325 324 323 322 321 320 319 318 316 316 315 314 314 313 313 314 314 314 315 315 316 317 317 318 318 317 318 318 318 319 319 319 319 319 320 320 321 322 321 321 321 321 321 321 321 321 321 321
3 3 2 0 359 357 356 355 354 353 352 351 350 349 347 346 346 345 344 343 342 341 340 339 337 336 335 334 333 333 332 332 331 331 331 330 329 328 327 326 324 323 321 320 318 317 316 316 315 315 315 314 314 315 315 316 316 317 317 318 318 318 318 318 319 319 320 320 320 320 320 321 321 322 323 323 323 322 322 322 322 322 322 322 322 322 323
7 6 5 4 2 1 360 359 358 357 356 354 353 351 350 349 348 346 345 344 342 341 340 339 338 337 336 335 335 335 334 334 333 333 332 331 330 328 327 325 323 321 319 318 317 316 316 316 316 316 316 316 316 317 317 318 318 319 319 320 320 320 320 321 321 321 322 322 322 322 322 323 323 324 324 323 323 323 322 323 323 324 324 324 324 324 324
13 12 11 9 7 5 4 3 1 0 359 357 355 354 353 351 350 348 347 345 344 342 341 340 339 338 337 337 336 336 335 334 333 332 331 330 328 327 324 322 321 320 319 319 318 318 318 318 318 318 318 318 319 319 320 321 321 321 321 322 322 322 322 322 322 323 323 323 323 324 324 324 324 324 323 323 323 323 323 324 325 325 325 325 326 326 326
16 14 12 10 8 6 4 3 1 0 359 357 356 354 353 351 350 348 347 345 344 342 341 339 338 337 336 335 335 334 334 333 332 331 330 328 327 325 323 322 322 321 321 320 320 320 320 320 320 321 321 322 322 322 323 323 323 323 324 324 324 324 324 324 324 324 325 325 325 325 325 324 323 323 323 323 324 324 325 326 326 327 327 327 327 327 327
16 13 11 9 7 5 3 2 0 359 357 356 354 353 351 350 348 347 345 344 342 341 339 338 336 335 334 334 333 333 333 333 332 331 329 328 327 326 325 324 324 323 323 323 322 322 323 323 324 324 325 325 325 325 325 326 326 326 326 326 326 326 326 326 326 326 326 325 325 325 324 324 324 324 324 325 326 326 327 328 328 329 329 329 329 329 329
15 12 10 8 6 4 2 1 359 357 356 354 353 352 350 349 347 346 344 343 341 340 338 337 336 335 335 334 334 334 334 333 332 331 330 329 328 328 327 326 326 326 326 326 326 326 327 327 328 328 328 328 328 328 328 328 328 328 328 328 328 328 327 327 326 326 325 325 324 325 325 325 326 326 326 327 328 328 329 329 330 331 330 330 330 330 330
15 12 10 8 6 4 2 1 359 357 355 353 352 351 350 348 347 345 344 342 341 339 338 337 337 336 336 336 336 335 335 334 334 333 332 331 331 330 329 329 329 329 329 330 330 330 331 331 331 331 331 331 331 331 331 331 331 330 330 330 329 329 328 327 326 325 325 325 325 326 327 327 327 328 328 328 329 329 330 331 331 331 331 331 331 331 331
14 11 9 7 6 4 2 0 358 356 355 353 352 351 350 349 347 345 344 342 341 340 340 340 339 339 339 339 338 338 337 337 336 335 335 334 333 333 332 332 333 334 334 334 334 334 334 335 335 334 335 335 334 334 334 334 333 332 331 330 329 328 327 327 326 326 326 327 327 328 329 329 329 330 330 330 331 332 332 332 333 333 333 333 333 332 332
11 9 7 6 4 3 1 359 357 356 355 354 353 351 351 349 347 346 345 344 343 343 343 342 342 342 341 341 340 340 339 339 338 338 337 336 336 336 337 337 338 338 338 338 338 338 338 338 338 338 338 338 337 336 335 335 333 332 331 330 328 328 327 327 328 328 328 329 330 330 331 331 331 331 332 332 333 333 334 334 334 334 335 335 334 334 333
7 6 5 4 3 1 360 358 357 356 355 354 353 352 351 349 348 347 346 346 345 345 344 344 344 343 343 342 342 342 341 341 340 340 339 339 340 340 341 341 342 342 342 342 342 342 341 341 341 340 340 338 337 336 335 334 333 331 330 329 329 329 329 330 330 331 331 332 332 332 332 333 333 333 334 334 335 335 335 335 336 336 336 336 335 335 334
4 3 3 2 1 360 359 357 356 355 354 353 352 351 350 349 348 348 348 347 346 346 345 345 345 344 344 344 344 344 344 343 343 342 343 343 344 345 345 345 345 345 345 345 345 344 344 343 342 341 339 338 336 335 334 333 333 332 332 332 332 332 332 333 333 334 334 334 334 334 334 335 335 336 336 336 336 337 337 337 337 337 337 337 336 336 336
2 2 1 0 359 358 357 356 355 354 353 352 352 351 350 349 349 348 348 347 347 346 346 346 345 346 346 346 346 346 346 345 345 346 346 347 347 348 348 348 348 348 348 347 346 345 344 343 341 340 339 338 337 336 336 335 335 335 335 335 335 335 336 336 336 336 336 336 336 336 336 337 337 338 338 337 338 338 338 338 338 338 338 338 337 337 337
360 360 359 359 358 357 356 355 354 353 352 351 351 350 350 350 350 349 348 348 347 347 347 347 347 348 348 348 348 348 347 347 348 349 350 350 350 350 350 350 350 349 349 348 346 345 344 343 342 341 341 340 340 339 339 339 339 339 338 338 338 338 338 338 338 338 338 338 338 338 338 338 339 339 339 339 339 340 340 340 339 339 339 339 339 339 339
358 358 358 357 356 355 354 354 353 352 352 351 351 350 350 351 350 350 349 349 348 348 348 348 349 349 349 349 349 349 349 350 351 351 352 352 352 351 351 351 350 350 349 347 346 346 345 345 345 344 344 343 343 342 342 341 341 341 341 341 341 341 341 340 340 340 340 340 340 340 340 340 340 341 341 341 341 342 342 341 341 341 341 340 340 341 341
356 356 356 355 355 354 354 353 352 352 351 351 351 351 351 351 351 351 350 350 349 349 349 349 350 350 350 350 350 351 351 352 353 353 353 353 352 352 352 352 351 350 349 349 348 348 348 347 347 346 346 345 344 344 344 343 343 343 343 343 343 343 342 342 342 342 342 342 341 341 341 341 342 342 342 343 343 343 343 342 342 342 342 342 342 342 343
354 354 354 354 354 353 353 352 352 351 351 351 351 352 352 352 352 351 351 350 350 350 350 350 350 350 351 351 351 352 353 353 354 353 353 353 353 353 353 352 352 351 351 351 350 350 349 349 348 348 347 347 346 346 346 346 345 345 345 345 344 344 344 344 344 344 343 343 343 343 343 343 343 343 344 344 344 343 344 344 344 344 344 344 344 344 344
352 352 353 353 352 352 352 351 351 351 351 351 351 352 352 352 352 352 351 350 350 350 350 350 351 351 351 352 352 353 354 354 354 354 354 354 354 354 353 353 353 353 352 352 351 351 350 350 349 349 349 349 348 348 348 348 347 347 347 346 346 346 346 346 346 345 345 345 345 345 345 345 344 344 345 345 345 345 345 345 345 345 346 346 346 345 345
351 351 351 351 351 351 351 351 351 351 351 351 351 352 352 352 352 351 351 350 350 350 350 351 351 351 351 352 353 354 354 354 354 354 354 354 354 354 354 354 354 353 353 352 352 352 352 351 351 351 351 350 350 350 350 349 349 349 348 348 348 348 348 348 347 347 347 346 346 346 346 346 346 345 346 346 346 346 346 346 347 347 347 347 347 346 346
349 350 350 350 350 350 350 350 350 351 351 351 351 351 351 352 351 351 351 350 350 350 351 351 351 351 352 352 353 354 354 354 354 354 354 355 355 355 355 354 354 354 353 353 353 353 353 352 352 352 352 351 351 351 351 351 350 350 350 349 349 349 349 349 349 348 348 348 348 348 347 347 347 346 347 347 347 347 347 347 348 348 348 348 347 347 347
348 348 349 349 349 349 349 350 350 350 350 350 350 350 351 351 351 350 350 350 350 350 351 351 351 351 352 352 353 354 354 354 354 355 355 355 355 355 355 355 354 354 354 354 353 353 353 353 353 353 352 352 352 352 352 352 351 351 351 350 350 350 350 350 350 350 349 349 349 349 349 348 348 348 348 348 348 349 349 348 348 349 348 348 348 349 349
347 347 348 348 348 348 349 349 350 350 349 349 349 350 350 350 350 350 350 350 350 350 351 351 351 351 352 352 353 353 354 354 354 355 355 355 355 355 355 355 355 354 354 354 354 354 353 353 353 353 353 353 353 353 353 352 352 352 352 351 351 351 351 351 351 351 350 350 349 349 349 349 349 349 349 349 349 349 350 349 349 349 349 349 349 350 350
346 346 346 346 346 347 348 348 349 349 348 348 349 349 349 349 349 349 349 350 350 350 350 351 351 351 352 352 353 353 354 354 354 355 355 355 355 355 355 354 354 354 354 354 354 354 354 354 354 354 354 354 354 353 353 353 353 352 352 352 352 352 352 352 352 351 351 350 350 350 350 350 350 350 350 350 350 350 350 350 350 350 350 349 350 350 351
345 345 345 345 345 346 347 347 347 348 348 348 348 348 348 348 348 349 349 349 349 350 350 351 351 351 351 352 353 353 354 354 354 354 354 355 355 354 354 354 354 354 354 354 354 354 354 354 354 354 354 354 354 354 354 353 353 353 353 353 353 353 352 352 352 352 351 351 351 351 351 351 351 350 350 351 351 351 351 351 351 350 350 350 350 350 351
Height
10657 10656 10656 10655 10655 10654 10653 10651 10649 10647 10645 10643 10641 10638 10636 10633 10630 10627 10623 10620 10617 10614 10610 10607 10603 10600 10597 10595 10593 10590 10588 10587 10584 10582 10580 10578 10575 10573 10571 10568 10566 10563 10560 10557 10555 10552 10548 10544 10541 10538 10535 10532 10528 10525 10522 10519 10515 10512 10508 10504 10501 10499 10497 10493 10487 10481 10477 10476 10473 10469 10465 10462 10458 10453 10447 10442 10439 10436 10432 10430 10427 10423 10418 10412 10407 10402 10396
10655 10654 10654 10653 10652 10651 10650 10648 10646 10644 10642 10640 10637 10634 10632 10629 10626 10623 10619 10616 10613 10609 10605 10602 10600 10597 10594 10592 10589 10587 10585 10583 10581 10579 10577 10574 10572 10569 10567 10564 10561 10558 10556 10553 10550 10547 10544 10539 10536 10532 10529 10526 10522 10518 10515 10512 10509 10505 10502 10498 10494 10491 10489 10487 10482 10476 10470 10467 10465 10461 10457 10453 10450 10446 10440 10435 10432 10428 10425 10423 10419 10416 10411 10405 10402 10397 10388
10653 10652 10652 10651 10650 10649 10647 10646 10644 10641 10639 10636 10633 10630 10627 10625 10622 10618 10615 10612 10608 10605 10601 10599 10596 10593 10591 10589 10587 10585 10582 10580 10578 10576 10573 10570 10568 10565 10563 10560 10556 10553 10551 10548 10544 10542 10538 10534 10530 10527 10523 10520 10516 10512 10509 10505 10502 10499 10495 10491 10487 10483 10480 10478 10475 10470 10466 10461 10457 10455 10451 10446 10441 10438 10434 10430 10426 10423 10420 10417 10413 10409 10403 10396 10393 10391 10384
10651 10651 10650 10648 10647 10646 10645 10643 10641 10638 10635 10632 10629 10626 10623 10620 10617 10614 10611 10607 10604 10601 10598 10595 10593 10590 10588 10586 10584 10582 10579 10577 10575 10572 10570 10567 10564 10561 10558 10555 10551 10548 10545 10542 10539 10535 10532 10529 10525 10521 10517 10514 10510 10506 10502 10499 10496 10492 10489 10485 10481 10476 10472 10469 10465 10462 10459 10455 10451 10449 10446 10441 10436 10432 10429 10425 10422 10418 10414 10410 10406 10401 10396 10388 10382 10381 10378
10649 10648 10647 10646 10645 10644 10642 10640 10637 10634 10632 10628 10625 10622 10619 10616 10613 10610 10606 10603 10600 10597 10594 10592 10590 10587 10585 10583 10580 10578 10576 10574 10571 10569 10566 10563 10560 10557 10554 10550 10547 10543 10540 10536 10533 10529 10526 10523 10519 10515 10512 10508 10504 10500 10496 10493 10490 10486 10483 10479 10475 10470 10465 10462 10457 10454 10452 10450 10445 10442 10438 10434 10429 10426 10422 10419 10415 10411 10406 10402 10398 10392 10388 10381 10373 10368 10366
10647 10646 10645 10644 10643 10641 10639 10636 10633 10631 10628 10625 10621 10618 10615 10612 10608 10605 10602 10599 10596 10594 10592 10589 10587 10585 10582 10580 10578 10575 10573 10570 10567 10564 10561 10558 10555 10552 10549 10545 10542 10538 10535 10531 10528 10524 10520 10516 10513 10509 10505 10501 10498 10494 10490 10487 10483 10480 10477 10472 10469 10464 10460 10455 10450 10446 10446 10444 10440 10436 10431 10426 10422 10418 10415 10412 10408 10403 10398 10393 10388 10382 10376 10371 10365 10357 10352
10645 10644 10643 10641 10640 10637 10635 10632 10630 10627 10624 10621 10617 10614 10610 10607 10604 10601 10598 10596 10593 10591 10589 10587 10584 10582 10580 10577 10575 10572 10569 10566 10563 10560 10557 10554 10550 10547 10544 10540 10536 10533 10529 10526 10522 10518 10514 10510 10506 10503 10499 10495 10492 10488 10484 10481 10477 10474 10471 10466 10463 10459 10455 10451 10445 10440 10439 10437 10433 10429 10424 10418 10413 10410 10407 10403 10399 10394 10389 10383 10377 10370 10364 10358 10353 10346 10340
10643 10642 10640 10639 10636 10634 10631 10628 10626 10623 10619 10616 10613 10610 10607 10603 10601 10598 10596 10593 10591 10588 10586 10584 10581 10579 10576 10574 10571 10568 10565 10562 10559 10555 10552 10549 10545 10542 10539 10535 10531 10528 10524 10520 10517 10513 10509 10505 10501 10497 10493 10490 10486 10482 10478 10475 10471 10468 10465 10461 10457 10454 10450 10447 10442 10436 10434 10432 10428 10423 10418 10412 10406 10401 10398 10394 10389 10384 10379 10374 10368 10360 10353 10346 10340 10334 10327
10640 10639 10637 10635 10633 10630 10627 10625 10622 10619 10615 10612 10609 10606 10603 10600 10598 10596 10593 10590 10588 10586 10583 10581 10578 10575 10573 10570 10567 10564 10561 10558 10554 10551 10547 10544 10540 10537 10533 10530 10526 10522 10519 10515 10511 10507 10504 10500 10496 10492 10488 10484 10481 10477 10474 10470 10467 10464 10460 10457 10453 10449 10446 10442 10438 10432 10428 10426 10423 10419 10413 10407 10400 10394 10391 10386 10381 10375 10369 10364 10359 10351 10343 10337 10331 10324 10316
10638 10636 10634 10632 10629 10626 10624 10621 10618 10615 10612 10609 10606 10603 10600 10598 10595 10593 10590 10588 10585 10583 10580 10578 10575 10572 10569 10566 10563 10560 10556 10553 10550 10546 10543 10539 10535 10532 10528 10525 10521 10517 10514 10510 10506 10503 10499 10496 10492 10488 10484 10480 10477 10473 10469 10466 10463 10460 10456 10453 10449 10445 10442 10438 10433 10427 10423 10419 10416 10412 10407 10400 10393 10388 10383 10377 10371 10365 10359 10353 10346 10338 10329 10324 10319 10312 10304
10634 10632 10630 10628 10625 10623 10620 10617 10614 10611 10609 10606 10603 10600 10598 10595 10592 10590 10588 10585 10582 10580 10577 10574 10571 10568 10565 10562 10559 10555 10552 10549 10545 10542 10538 10534 10531 10527 10524 10520 10516 10513 10509 10505 10502 10498 10495 10491 10488 10484 10480 10477 10473 10469 10465 10462 10459 10456 10453 10449 10445 10441 10437 10434 10429 10423 10417 10412 10407 10402 10397 10391 10385 10380 10375 10367 10359 10354 10350 10344 10336 10327 10317 10310 10305 10298 10289
10631 10629 10626 10624 10621 10619 10616 10614 10611 10608 10606 10603 10600 10598 10595 10593 10590 10587 10585 10582 10579 10576 10573 10570 10567 10564 10561 10558 10555 10551 10548 10545 10541 10537 10534 10530 10527 10523 10519 10516 10512 10508 10505 10501 10498 10494 10490 10487 10483 10480 10477 10473 10469 10465 10461 10458 10454 10451 10448 10444 10440 10435 10431 10427 10423 10417 10411 10406 10400 10394 10387 10380 10374 10370 10364 10356 10348 10343 10339 10334 10324 10314 10305 10298 10289 10280 10271
10627 10625 10623 10620 10618 10615 10613 10611 10608 10606 10603 10600 10598 10595 10592 10590 10587 10584 10582 10579 10576 10573 10570 10567 10564 10560 10557 10554 10551 10547 10544 10540 10537 10533 10530 10526 10523 10519 10516 10512 10508 10505 10501 10498 10494 10491 10487 10483 10479 10475 10472 10469 10465 10460 10456 10452 10448 10445 10442 10438 10434 10429 10424 10420 10416 10411 10405 10398 10393 10388 10381 10373 10367 10362 10354 10344 10336 10330 10327 10322 10312 10299 10291 10285 10276 10266 10256
10624 10621 10619 10617 10615 10613 10610 10608 10605 10603 10600 10597 10595 10592 10589 10587 10584 10581 10578 10575 10572 10569 10566 10563 10560 10556 10553 10550 10546 10543 10540 10536 10533 10529 10526 10522 10519 10515 10512 10508 10505 10501 10498 10494 10491 10487 10483 10480 10476 10471 10467 10464 10460 10456 10451 10446 10443 10439 10435 10432 10428 10422 10417 10413 10408 10403 10398 10391 10384 10379 10373 10365 10359 10353 10344 10334 10325 10318 10313 10310 10302 10290 10281 10273 10263 10253 10243
10620 10618 10616 10614 10612 10610 10607 10605 10602 10600 10597 10594 10592 10589 10586 10584 10581 10578 10575 10572 10569 10566 10562 10559 10556 10553 10549 10546 10542 10539 10536 10532 10529 10526 10522 10519 10515 10512 10508 10505 10501 10498 10494 10491 10487 10483 10480 10476 10472 10468 10463 10460 10456 10452 10447 10442 10438 10433 10429 10425 10421 10415 10410 10406 10400 10395 10390 10383 10375 10369 10363 10356 10349 10341 10332 10321 10312 10303 10297 10291 10282 10272 10263 10255 10244 10233 10224
10617 10615 10613 10611 10609 10607 10604 10602 10599 10597 10594 10591 10589 10586 10583 10581 10578 10575 10571 10568 10565 10562 10559 10555 10552 10549 10545 10542 10539 10536 10532 10529 10525 10522 10519 10515 10512 10508 10505 10501 10498 10495 10491 10487 10483 10480 10476 10472 10468 10464 10460 10456 10452 10448 10443 10438 10433 10428 10423 10418 10414 10408 10402 10397 10391 10386 10380 10373 10365 10358 10351 10345 10338 10330 10319 10307 10296 10287 10279 10272 10263 10250 10241 10233 10223 10213 10203
10614 10612 10610 10608 10606 10604 10602 10599 10596 10594 10591 10588 10586 10583 10580 10577 10574 10571 10568 10564 10561 10558 10555 10552 10549 10545 10542 10539 10536 10532 10529 10526 10522 10519 10516 10512 10509 10506 10502 10498 10495 10491 10488 10484 10480 10476 10472 10468 10464 10460 10455 10451 10446 10442 10438 10433 10428 10422 10417 10411 10406 10400 10393 10387 10380 10374 10369 10362 10353 10345 10338 10331 10323 10316 10306 10293 10281 10272 10262 10254 10247 10237 10224 10215 10207 10198 10189
10612 10610 10608 10606 10604 10601 10599 10596 10593 10591 10588 10585 10583 10580 10577 10574 10571 10567 10564 10561 10558 10554 10551 10548 10545 10542 10539 10536 10533 10530 10526 10523 10519 10516 10513 10509 10506 10502 10499 10495 10492 10488 10484 10480 10476 10472 10468 10464 10460 10455 10450 10445 10440 10435 10430 10426 10422 10416 10410 10405 10399 10392 10386 10379 10371 10363 10357 10350 10341 10331 10324 10316 10308 10300 10291 10279 10267 10258 10248 10236 10230 10224 10214 10203 10195 10187 10178
10610 10608 10606 10603 10601 10599 10596 10593 10591 10588 10585 10583 10580 10577 10574 10570 10567 10564 10561 10558 10554 10551 10548 10546 10542 10539 10536 10533 10530 10527 10524 10520 10517 10514 10510 10506 10503 10500 10496 10492 10488 10484 10480 10476 10472 10468 10464 10459 10455 10450 10445 10440 10435 10430 10424 10419 10414 10409 10403 10397 10390 10384 10377 10370 10362 10353 10345 10337 10328 10319 10310 10303 10295 10286 10276 10265 10254 10246 10237 10226 10216 10209 10203 10194 10183 10174 10166
10607 10605 10603 10601 10598 10596 10593 10591 10588 10585 10582 10579 10576 10573 10570 10567 10564 10561 10558 10555 10552 10549 10546 10543 10540 10537 10534 10531 10528 10524 10521 10518 10515 10511 10508 10504 10500 10497 10493 10489 10485 10481 10476 10472 10468 10463 10459 10455 10450 10445 10440 10435 10430 10424 10418 10412 10406 10400 10394 10387 10381 10373 10366 10359 10351 10343 10335 10326 10317 10308 10299 10292 10284 10275 10264 10254 10244 10235 10227 10218 10207 10197 10189 10180 10170 10159 10150
10605 10603 10600 10598 10595 10593 10590 10588 10585 10582 10579 10576 10573 10570 10567 10564 10561 10558 10555 10552 10549 10546 10543 10541 10538 10535 10531 10528 10525 10522 10519 10515 10512 10508 10505 10501 10497 10494 10490 10486 10481 10477 10473 10469 10464 10460 10455 10450 10445 10440 10435 10429 10424 10418 10412 10404 10397 10390 10383 10376 10370 10362 10355 10346 10337 10330 10323 10314 10303 10293 10284 10276 10270 10262 10252 10242 10233 10223 10214 10205 10195 10184 10174 10164 10153 10142 10131
10602 10600 10598 10595 10593 10590 10588 10585 10582 10579 10576 10573 10570 10567 10564 10561 10558 10555 10553 10550 10547 10544 10541 10538 10535 10532 10529 10526 10522 10519 10516 10512 10509 10506 10502 10498 10494 10491 10487 10483 10479 10474 10470 10466 10461 10456 10450 10445 10440 10434 10429 10422 10416 10410 10404 10396 10389 10381 10373 10365 10358 10350 10343 10334 10324 10314 10307 10299 10289 10278 10268 10260 10252 10245 10236 10226 10216 10206 10196 10187 10178 10168 10158 10148 10138 10128 10118
10600 10597 10595 10592 10590 10587 10585 10582 10579 10576 10573 10571 10568 10565 10562 10559 10556 10553 10550 10548 10545 10542 10539 10536 10533 10529 10526 10523 10520 10516 10513 10509 10506 10502 10498 10495 10491 10487 10483 10479 10475 10470 10465 10460 10455 10450 10445 10439 10434 10428 10422 10415 10408 10401 10394 10387 10379 10371 10363 10355 10346 10338 10330 10321 10311 10301 10293 10284 10275 10264 10253 10244 10235 10226 10217 10208 10198 10188 10179 10170 10161 10152 10144 10135 10126 10118 10109
10598 10595 10593 10590 10588 10585 10582 10580 10577 10574 10571 10569 10566 10563 10560 10558 10554 10551 10549 10546 10543 10540 10536 10533 10530 10527 10524 10520 10517 10513 10510 10506 10503 10499 10495 10491 10487 10483 10478 10474 10469 10464 10459 10455 10449 10444 10438 10432 10426 10420 10414 10407 10400 10392 10384 10377 10369 10360 10352 10344 10336 10327 10319 10309 10298 10288 10279 10270 10261 10251 10240 10231 10222 10213 10203 10193 10184 10175 10166 10159 10151 10143 10134 10126 10116 10106 10097
10596 10593 10591 10588 10586 10583 10581 10578 10575 10573 10570 10567 10565 10562 10559 10556 10553 10550 10547 10544 10541 10538 10535 10532 10528 10525 10522 10518 10515 10511 10507 10504 10500 10496 10492 10487 10483 10479 10474 10469 10464 10459 10454 10449 10443 10438 10431 10425 10418 10412 10404 10397 10390 10383 10375 10367 10359 10350 10341 10333 10324 10316 10307 10298 10287 10277 10268 10259 10250 10240 10229 10217 10208 10201 10193 10184 10176 10167 10159 10151 10143 10135 10125 10114 10103 10093 10084
10594 10591 10589 10587 10584 10581 10579 10576 10574 10571 10569 10566 10563 10560 10557 10554 10551 10548 10545 10542 10539 10536 10533 10530 10526 10523 10520 10516 10512 10509 10505 10501 10497 10493 10488 10484 10479 10474 10469 10464 10459 10454 10449 10443 10437 10431 10424 10417 10410 10403 10396 10388 10380 10372 10364 10356 10348 10339 10329 10320 10312 10304 10296 10287 10276 10266 10257 10247 10238 10230 10221 10210 10200 10192 10185 10177 10169 10160 10151 10142 10132 10123 10113 10103 10092 10080 10071
10592 10590 10588 10585 10583 10580 10578 10575 10573 10570 10568 10565 10562 10559 10556 10553 10550 10547 10544 10541 10537 10534 10531 10528 10524 10521 10517 10514 10510 10506 10502 10498 10493 10489 10484 10480 10475 10470 10465 10460 10454 10449 10443 10437 10431 10424 10417 10410 10403 10395 10387 10379 10370 10362 10353 10345 10336 10327 10317 10308 10299 10292 10284 10275 10265 10256 10246 10238 10230 10223 10216 10206 10196 10187 10179 10170 10161 10151 10141 10131 10122 10112 10102 10093 10082 10070 10059
10591 10589 10587 10584 10582 10580 10577 10575 10572 10569 10566 10563 10561 10558 10555 10552 10549 10546 10542 10539 10536 10533 10529 10526 10522 10519 10515 10511 10507 10503 10499 10495 10490 10486 10481 10476 10471 10466 10460 10455 10449 10443 10437 10430 10423 10417 10410 10402 10395 10387 10379 10370 10361 10352 10343 10334 10325 10316 10306 10297 10288 10280 10272 10264 10256 10247 10239 10230 10221 10214 10206 10197 10187 10178 10169 10161 10151 10141 10130 10121 10111 10101 10090 10079 10068 10059 10049
10590 10588 10586 10584 10581 10579 10576 10574 10571 10568 10565 10562 10559 10556 10553 10550 10547 10544 10541 10537 10534 10531 10527 10523 10520 10516 10512 10508 10504 10501 10497 10492 10487 10483 10478 10472 10467 10461 10455 10449 10442 10436 10430 10423 10416 10409 10402 10394 10386 10378 10369 10361 10352 10342 10333 10324 10315 10306 10296 10287 10278 10270 10262 10255 10247 10239 10230 10221 10211 10203 10196 10187 10177 10168 10159 10150 10140 10130 10119 10109 10099 10088 10078 10067 10056 10047 10038
10590 10588 10586 10584 10581 10579 10576 10574 10571 10568 10565 10562 10559 10556 10553 10549 10546 10543 10539 10536 10533 10529 10525 10522 10518 10514 10510 10507 10502 10498 10494 10489 10484 10479 10473 10468 10462 10456 10450 10443 10437 10430 10423 10416 10409 10401 10394 10386 10377 10368 10359 10350 10341 10332 10323 10314 10305 10296 10288 10279 10270 10262 10253 10245 10237 10229 10221 10212 10202 10193 10185 10177 10167 10157 10147 10138 10127 10117 10107 10097 10087 10077 10067 10057 10047 10037 10027
10590 10588 10586 10584 10582 10579 10576 10573 10570 10567 10564 10561 10558 10555 10552 10548 10545 10542 10538 10535 10531 10528 10524 10520 10516 10512 10508 10504 10499 10495 10490 10485 10480 10475 10469 10463 10457 10451 10444 10438 10431 10424 10416 10409 10400 10392 10384 10376 10367 10358 10348 10339 10330 10322 10314 10305 10296 10288 10279 10270 10261 10253 10244 10235 10226 10219 10211 10203 10193 10182 10172 10163 10154 10144 10135 10126 10116 10106 10097 10087 10078 10068 10057 10046 10035 10026 10017
10590 10588 10586 10583 10581 10578 10576 10573 10570 10567 10564 10560 10557 10554 10550 10547 10544 10540 10536 10533 10529 10525 10521 10517 10513 10509 10505 10500 10496 10492 10487 10482 10477 10471 10466 10460 10453 10446 10439 10432 10424 10416 10408 10400 10391 10382 10374 10365 10357 10348 10338 10329 10321 10312 10304 10296 10287 10279 10271 10262 10253 10244 10235 10226 10218 10210 10202 10193 10185 10175 10164 10154 10144 10135 10127 10119 10109 10099 10089 10080 10070 10059 10048 10037 10025 10015 10006
10590 10588 10586 10583 10581 10578 10575 10572 10569 10566 10563 10559 10556 10553 10549 10546 10542 10538 10535 10531 10527 10523 10519 10515 10511 10507 10503 10499 10494 10489 10484 10479 10474 10468 10462 10455 10448 10441 10433 10424 10415 10407 10399 10390 10381 10372 10363 10355 10347 10338 10329 10320 10311 10303 10295 10287 10278 10270 10262 10254 10245 10236 10227 10218 10209 10201 10192 10183 10174 10166 10158 10148 10138 10129 10120 10110 10101 10090 10081 10072 10062 10051 10040 10028 10017 10007 9997
10590 10588 10586 10583 10581 10578 10575 10572 10569 10566 10563 10559 10556 10553 10549 10545 10542 10538 10534 10530 10526 10522 10518 10514 10510 10505 10501 10497 10492 10488 10482 10476 10470 10463 10456 10449 10441 10433 10424 10415 10406 10397 10389 10379 10370 10362 10353 10345 10337 10329 10321 10312 10303 10295 10287 10279 10270 10262 10254 10246 10237 10229 10220 10209 10199 10191 10182 10173 10164 10156 10148 10139 10129 10119 10110 10100 10090 10080 10071 10062 10053 10043 10032 10020 10010 9999 9990
10591 10589 10586 10584 10581 10578 10575 10572 10569 10565 10562 10559 10555 10552 10548 10544 10540 10536 10532 10528 10524 10520 10516 10512 10508 10504 10499 10494 10489 10484 10479 10473 10466 10459 10451 10442 10434 10425 10416 10406 10397 10388 10379 10370 10361 10352 10344 10336 10328 10320 10312 10304 10296 10288 10280 10272 10263 10255 10247 10238 10230 10222 10213 10203 10193 10184 10176 10167 10158 10149 10140 10130 10120 10110 10100 10091 10081 10072 10062 10053 10044 10034 10025 10014 10003 9993 9984
10592 10589 10587 10584 10581 10578 10575 10572 10569 10565 10562 10558 10555 10551 10547 10543 10538 10534 10530 10526 10523 10519 10515 10510 10506 10501 10496 10491 10486 10480 10474 10467 10460 10452 10444 10435 10426 10416 10407 10397 10388 10379 10370 10361 10352 10344 10336 10329 10320 10312 10305 10297 10289 10281 10273 10264 10256 10247 10239 10230 10222 10213 10205 10197 10188 10178 10169 10161 10152 10142 10133 10122 10112 10102 10092 10083 10074 10065 10055 10046 10037 10028 10018 10008 9997 9987 9978
10592 10589 10587 10584 10581 10578 10574 10571 10568 10564 10561 10557 10553 10550 10546 10541 10537 10532 10528 10524 10520 10516 10512 10507 10502 10498 10493 10487 10481 10475 10468 10461 10453 10445 10436 10427 10417 10408 10398 10388 10379 10371 10362 10353 10345 10337 10329 10322 10314 10305 10298 10290 10282 10274 10266 10257 10248 10239 10230 10222 10213 10205 10197 10189 10181 10171 10162 10153 10143 10134 10125 10114 10104 10094 10084 10075 10066 10056 10046 10037 10029 10019 10010 10000 9989 9979 9970
10592 10589 10586 10583 10580 10577 10574 10570 10567 10563 10559 10555 10551 10547 10543 10539 10534 10530 10525 10521 10516 10512 10507 10503 10498 10493 10488 10482 10475 10469 10462 10454 10446 10437 10428 10419 10409 10400 10390 10381 10372 10364 10355 10347 10338 10330 10322 10314 10306 10298 10290 10282 10274 10266 10258 10250 10241 10233 10224 10215 10207 10199 10191 10183 10174 10165 10156 10146 10137 10128 10119 10109 10098 10087 10077 10067 10057 10047 10037 10028 10019 10009 9999 9990 9980 9970 9960
10591 10588 10585 10582 10579 10576 10572 10569 10565 10561 10557 10553 10549 10545 10541 10536 10532 10527 10522 10518 10513 10508 10504 10499 10493 10488 10482 10477 10470 10463 10455 10447 10438 10429 10420 10410 10401 10392 10383 10374 10366 10357 10349 10340 10332 10324 10315 10308 10300 10292 10283 10275 10267 10259 10251 10244 10236 10228 10219 10211 10202 10193 10184 10176 10167 10157 10148 10138 10129 10120 10111 10103 10093 10082 10071 10061 10051 10040 10029 10020 10010 10001 9992 9983 9973 9963 9953
10590 10587 10584 10581 10578 10574 10571 10567 10563 10559 10555 10551 10547 10543 10538 10534 10529 10524 10520 10515 10510 10505 10500 10495 10490 10484 10478 10471 10464 10456 10448 10439 10430 10420 10411 10402 10393 10384 10376 10367 10359 10351 10342 10334 10326 10318 10310 10302 10294 10286 10278 10270 10262 10254 10247 10240 10232 10223 10214 10205 10195 10186 10177 10168 10158 10149 10138 10128 10119 10109 10101 10093 10084 10074 10064 10054 10044 10035 10024 10013 10004 9995 9986 9977 9967 9957 9947
10589 10586 10583 10579 10576 10573 10569 10565 10561 10557 10553 10549 10545 10541 10536 10531 10526 10521 10517 10512 10507 10502 10497 10491 10485 10479 10472 10465 10458 10449 10440 10431 10422 10413 10403 10394 10385 10376 10368 10359 10351 10343 10336 10328 10320 10312 10304 10297 10289 10281 10274 10266 10258 10249 10241 10233 10225 10216 10206 10197 10188 10178 10169 10159 10149 10140 10130 10120 10110 10101 10092 10083 10075 10066 10056 10046 10037 10028 10018 10008 9998 9989 9980 9970 9960 9950 9940
10587 10584 10581 10578 10574 10571 10567 10564 10560 10556 10551 10547 10543 10538 10534 10529 10524 10519 10513 10508 10503 10498 10492 10486 10480 10473 10466 10458 10451 10442 10433 10424 10415 10405 10396 10387 10378 10369 10361 10353 10344 10336 10329 10321 10314 10307 10299 10292 10284 10275 10267 10259 10250 10241 10232 10224 10215 10207 10198 10189 10180 10170 10161 10151 10142 10132 10123 10113 10103 10094 10084 10076 10067 10059 10049 10039 10029 10021 10012 10002 9993 9983 9973 9963 9953 9943 9933
10585 10582 10579 10576 10572 10569 10565 10561 10557 10553 10549 10544 10540 10535 10530 10524 10519 10514 10508 10503 10497 10492 10486 10480 10473 10467 10459 10452 10444 10436 10426 10417 10408 10398 10389 10380 10372 10364 10355 10347 10339 10331 10324 10316 10309 10302 10294 10286 10278 10269 10260 10251 10242 10233 10224 10216 10207 10199 10190 10181 10171 10162 10152 10143 10134 10125 10116 10106 10096 10087 10078 10068 10060 10051 10043 10033 10023 10014 10005 9996 9987 9978 9968 9958 9948 9938 9928
10584 10581 10577 10574 10571 10567 10563 10559 10555 10551 10546 10541 10536 10531 10526 10520 10515 10509 10503 10497 10492 10486 10480 10474 10467 10460 10453 10446 10438 10429 10420 10411 10402 10393 10384 10375 10367 10358 10350 10342 10334 10327 10319 10311 10303 10295 10287 10279 10271 10263 10254 10246 10237 10228 10218 10209 10199 10190 10181 10172 10163 10154 10145 10136 10126 10117 10108 10099 10089 10079 10070 10061 10052 10044 10036 10027 10018 10009 10001 9991 9981 9972 9963 9953 9942 9932 9923
10582 10578 10575 10572 10568 10565 10561 10557 10553 10548 10543 10538 10533 10528 10522 10516 10511 10505 10499 10493 10487 10481 10475 10468 10462 10455 10447 10440 10432 10423 10414 10405 10397 10388 10379 10371 10362 10353 10345 10337 10329 10321 10313 10305 10297 10289 10281 10273 10265 10257 10248 10239 10230 10221 10212 10202 10192 10183 10174 10165 10156 10147 10138 10129 10119 10110 10101 10092 10082 10073 10063 10054 10044 10036 10029 10020 10011 10003 9995 9987 9977 9967 9957 9947 9936 9926 9916
10580 10576 10573 10569 10566 10562 10558 10554 10549 10544 10539 10534 10529 10523 10518 10512 10506 10501 10495 10489 10483 10477 10470 10464 10457 10450 10443 10435 10426 10418 10409 10400 10392 10383 10375 10366 10358 10349 10341 10333 10325 10316 10308 10300 10293 10285 10277 10268 10259 10250 10241 10231 10222 10213 10204 10195 10186 10177 10168 10159 10150 10141 10132 10122 10113 10104 10095 10085 10076 10066 10056 10047 10037 10028 10020 10013 10004 9995 9986 9979 9971 9962 9952 9942 9931 9921 9911
10577 10574 10570 10567 10563 10559 10555 10550 10545 10540 10535 10530 10524 10519 10514 10508 10503 10497 10491 10485 10478 10472 10465 10459 10451 10444 10437 10430 10422 10413 10405 10396 10388 10379 10370 10361 10353 10344 10336 10328 10320 10312 10304 10296 10288 10279 10270 10261 10252 10243 10234 10224 10215 10206 10197 10188 10179 10170 10161 10152 10143 10135 10126 10116 10107 10098 10089 10080 10070 10060 10050 10041 10030 10021 10012 10005 9996 9987 9978 9970 9963 9954 9945 9935 9927 9917 9907
10575 10571 10568 10564 10560 10556 10551 10547 10542 10536 10531 10526 10521 10516 10510 10505 10499 10493 10487 10481 10474 10468 10461 10454 10447 10440 10432 10424 10416 10408 10400 10392 10383 10374 10365 10356 10348 10340 10332 10323 10315 10307 10299 10290 10282 10273 10264 10255 10246 10237 10228 10219 10210 10201 10192 10182 10173 10164 10155 10146 10137 10128 10119 10110 10101 10092 10083 10074 10064 10055 10045 10035 10025 10015 10006 9997 9990 9981 9971 9962 9954 9947 9938 9930 9921 9911 9902
10572 10568 10565 10560 10556 10552 10548 10543 10538 10533 10528 10522 10517 10512 10507 10501 10496 10490 10484 10477 10471 10464 10457 10450 10443 10435 10428 10420 10412 10404 10396 10387 10378 10369 10360 10352 10343 10335 10327 10319 10311 10302 10294 10286 10277 10268 10259 10251 10242 10233 10224 10215 10206 10196 10187 10178 10169 10160 10150 10141 10132 10123 10114 10105 10095 10086 10076 10067 10058 10049 10040 10030 10020 10010 10000 9991 9983 9975 9965 9955 9947 9940 9933 9924 9915 9906 9896
10569 10565 10561 10557 10553 10549 10545 10540 10535 10530 10525 10519 10514 10509 10503 10498 10492 10486 10480 10473 10467 10460 10453 10446 10439 10431 10424 10416 10408 10400 10391 10382 10373 10364 10355 10347 10339 10331 10323 10315 10307 10298 10290 10281 10273 10264 10256 10247 10238 10229 10219 10210 10201 10192 10183 10174 10165 10156 10146 10137 10127 10118 10109 10099 10090 10080 10071 10062 10053 10044 10035 10026 10016 10006 9996 9987 9978 9970 9962 9953 9943 9935 9926 9918 9909 9901 9891
10566 10563 10559 10555 10551 10546 10542 10537 10532 10527 10522 10516 10511 10505 10500 10494 10488 10482 10476 10470 10463 10456 10450 10443 10436 10428 10420 10412 10404 10395 10386 10377 10369 10360 10352 10343 10335 10326 10318 10310 10302 10294 10285 10277 10269 10260 10252 10243 10233 10224 10214 10205 10196 10188 10179 10170 10161 10151 10142 10133 10123 10114 10105 10095 10086 10077 10067 10058 10049 10039 10030 10021 10012 10002 9993 9984 9974 9965 9958 9949 9939 9929 9920 9911 9903 9895 9887
10564 10560 10556 10552 10548 10544 10539 10534 10529 10524 10519 10513 10508 10502 10497 10491 10485 10479 10473 10466 10459 10453 10446 10438 10431 10424 10417 10408 10400 10391 10381 10373 10364 10356 10348 10339 10331 10322 10314 10306 10297 10289 10281 10273 10265 10256 10248 10239 10229 10220 10210 10201 10192 10183 10175 10166 10157 10147 10138 10128 10119 10110 10101 10092 10083 10074 10064 10055 10045 10035 10026 10017 10008 9998 9989 9980 9971 9962 9953 9944 9934 9924 9915 9906 9898 9890 9884